Hourly Weather Zhuji

Today, 9 March, Tuesday

Time Temperature Precipitation Wind Pressure Humidity
00:00 +10°C° 0 mm 0 mps 766 mmHg 96%
01:00 +10°C° 0 mm 0 mps 766 mmHg 96%
02:00 +10°C° 0 mm 0 mps 765 mmHg 96%
03:00 +11°C° 0 mm 1 mps 765 mmHg 96%
04:00 +11°C° 0 mm 1 mps 765 mmHg 96%
05:00 +11°C° 0 mm 1 mps 766 mmHg 96%
06:00 +11°C° 0 mm 1 mps 766 mmHg 95%
07:00 +10°C° 0 mm 0 mps 766 mmHg 95%
08:00 +10°C° 0 mm 0 mps 767 mmHg 94%
09:00 +12°C° 0 mm 1 mps 767 mmHg 90%
10:00 +13°C° 0 mm 1 mps 767 mmHg 87%
11:00 +14°C° 0 mm 1 mps 767 mmHg 84%
12:00 +14°C° 0 mm 1 mps 767 mmHg 82%
13:00 +15°C° 0 mm 1 mps 766 mmHg 79%
14:00 +15°C° 0 mm 2 mps 766 mmHg 77%
15:00 +15°C° 0 mm 2 mps 766 mmHg 78%
16:00 +15°C° 0 mm 2 mps 766 mmHg 79%
17:00 +13°C° 0 mm 3 mps 766 mmHg 81%
18:00 +13°C° 0 mm 2 mps 767 mmHg 84%
19:00 +13°C° 0 mm 2 mps 767 mmHg 87%
20:00 +12°C° 0 mm 2 mps 768 mmHg 91%
21:00 +11°C° 0 mm 1 mps 768 mmHg 92%
22:00 +11°C° 0 mm 1 mps 769 mmHg 93%
23:00 +11°C° 0 mm 1 mps 769 mmHg 94%

Tomorrow, 10 March, Wednesday

Time Temperature Precipitation Wind Pressure Humidity
00:00 +10°C° 0 mm 1 mps 769 mmHg 95%
01:00 +10°C° 0 mm 1 mps 768 mmHg 95%
02:00 +9°C° 0 mm 1 mps 768 mmHg 96%
03:00 +9°C° 0 mm 1 mps 768 mmHg 96%
04:00 +9°C° 0 mm 1 mps 768 mmHg 96%
05:00 +9°C° 0 mm 1 mps 768 mmHg 96%
06:00 +9°C° 0 mm 1 mps 768 mmHg 94%
07:00 +10°C° 0 mm 1 mps 769 mmHg 91%
08:00 +11°C° 0 mm 1 mps 769 mmHg 89%
09:00 +12°C° 0 mm 1 mps 769 mmHg 83%
10:00 +14°C° 0 mm 1 mps 769 mmHg 77%
11:00 +15°C° 0 mm 1 mps 768 mmHg 71%
12:00 +16°C° 0 mm 1 mps 768 mmHg 67%
13:00 +18°C° 0 mm 1 mps 767 mmHg 63%
14:00 +20°C° 0 mm 1 mps 767 mmHg 59%
15:00 +19°C° 0 mm 1 mps 766 mmHg 62%
16:00 +19°C° 0 mm 1 mps 766 mmHg 64%
17:00 +17°C° 0 mm 2 mps 766 mmHg 67%
18:00 +16°C° 0 mm 1 mps 766 mmHg 70%
19:00 +15°C° 0 mm 1 mps 766 mmHg 73%
20:00 +13°C° 0 mm 1 mps 767 mmHg 76%
21:00 +13°C° 0 mm 1 mps 767 mmHg 77%
22:00 +12°C° 0 mm 1 mps 767 mmHg 78%
23:00 +11°C° 0 mm 0 mps 766 mmHg 79%

Day after tomorrow, 11 March, Thursday

Time Temperature Precipitation Wind Pressure Humidity
00:00 +11°C° 0.2 mm 0 mps 766 mmHg 80%
01:00 +11°C° 0.2 mm 0 mps 766 mmHg 81%
02:00 +11°C° 0.2 mm 0 mps 765 mmHg 82%
03:00 +10°C° 1.2 mm 0 mps 765 mmHg 86%
04:00 +10°C° 1.2 mm 0 mps 765 mmHg 90%
05:00 +11°C° 1.2 mm 1 mps 765 mmHg 94%
06:00 +11°C° 0.2 mm 1 mps 765 mmHg 94%
07:00 +11°C° 0.2 mm 1 mps 765 mmHg 93%
08:00 +11°C° 0.2 mm 1 mps 766 mmHg 92%
09:00 +13°C° 0 mm 1 mps 766 mmHg 88%
10:00 +14°C° 0 mm 1 mps 766 mmHg 84%
11:00 +16°C° 0 mm 1 mps 766 mmHg 79%
12:00 +16°C° 0 mm 1 mps 765 mmHg 81%
13:00 +15°C° 0 mm 0 mps 765 mmHg 82%
14:00 +15°C° 0 mm 0 mps 764 mmHg 83%
15:00 +15°C° 0 mm 0 mps 764 mmHg 83%
16:00 +15°C° 0 mm 0 mps 764 mmHg 83%
17:00 +16°C° 0 mm 0 mps 764 mmHg 83%
18:00 +15°C° 0 mm 0 mps 764 mmHg 85%
19:00 +14°C° 0 mm 0 mps 765 mmHg 88%
20:00 +15°C° 0 mm 1 mps 765 mmHg 91%
21:00 +14°C° 0 mm 1 mps 765 mmHg 91%
22:00 +14°C° 0 mm 1 mps 765 mmHg 92%
23:00 +14°C° 0 mm 1 mps 766 mmHg 92%

12 March, Friday

Time Temperature Precipitation Wind Pressure Humidity
00:00 +13°C° 0.2 mm 1 mps 765 mmHg 93%
01:00 +13°C° 0.2 mm 1 mps 765 mmHg 93%
02:00 +13°C° 0.2 mm 1 mps 765 mmHg 94%
03:00 +13°C° 0.6 mm 1 mps 765 mmHg 95%
04:00 +13°C° 0.6 mm 1 mps 765 mmHg 95%
05:00 +12°C° 0.6 mm 1 mps 765 mmHg 96%
06:00 +12°C° 0.2 mm 1 mps 765 mmHg 96%
07:00 +12°C° 0.2 mm 1 mps 766 mmHg 96%
08:00 +13°C° 0.2 mm 1 mps 766 mmHg 95%
09:00 +13°C° 0.1 mm 1 mps 766 mmHg 94%
10:00 +13°C° 0.1 mm 1 mps 766 mmHg 93%
11:00 +13°C° 0.1 mm 1 mps 766 mmHg 92%
12:00 +14°C° 0 mm 1 mps 766 mmHg 90%
13:00 +14°C° 0 mm 1 mps 766 mmHg 87%
14:00 +15°C° 0 mm 1 mps 765 mmHg 85%
15:00 +15°C° 0 mm 1 mps 765 mmHg 85%
16:00 +15°C° 0 mm 1 mps 765 mmHg 84%
17:00 +16°C° 0 mm 1 mps 765 mmHg 83%
18:00 +15°C° 0 mm 1 mps 765 mmHg 85%
19:00 +14°C° 0 mm 0 mps 766 mmHg 87%
20:00 +13°C° 0 mm 0 mps 766 mmHg 89%
21:00 +13°C° 0 mm 0 mps 766 mmHg 89%
22:00 +13°C° 0 mm 0 mps 766 mmHg 90%
23:00 +12°C° 0 mm 0 mps 766 mmHg 91%

13 March, Saturday

Time Temperature Precipitation Wind Pressure Humidity
00:00 +12°C° 0 mm 0 mps 766 mmHg 91%
01:00 +12°C° 0 mm 0 mps 765 mmHg 92%
02:00 +11°C° 0 mm 0 mps 765 mmHg 93%
03:00 +11°C° 0 mm 0 mps 765 mmHg 94%
04:00 +10°C° 0 mm 0 mps 765 mmHg 94%
05:00 +10°C° 0 mm 0 mps 764 mmHg 95%
06:00 +11°C° 0 mm 0 mps 765 mmHg 92%
07:00 +12°C° 0 mm 0 mps 765 mmHg 90%
08:00 +13°C° 0 mm 0 mps 765 mmHg 87%
09:00 +16°C° 0 mm 1 mps 765 mmHg 81%
10:00 +19°C° 0 mm 1 mps 765 mmHg 75%
11:00 +20°C° 0 mm 1 mps 765 mmHg 69%
12:00 +21°C° 0 mm 1 mps 764 mmHg 68%
13:00 +20°C° 0 mm 0 mps 763 mmHg 66%
14:00 +20°C° 0 mm 0 mps 762 mmHg 65%
15:00 +22°C° 0 mm 1 mps 762 mmHg 68%
16:00 +21°C° 0 mm 1 mps 762 mmHg 71%
17:00 +20°C° 0 mm 1 mps 762 mmHg 74%
18:00 +19°C° 0 mm 1 mps 762 mmHg 77%
19:00 +16°C° 0 mm 1 mps 762 mmHg 80%
20:00 +15°C° 0 mm 1 mps 763 mmHg 83%
21:00 +14°C° 0 mm 1 mps 763 mmHg 84%
22:00 +14°C° 0 mm 1 mps 763 mmHg 85%
23:00 +12°C° 0 mm 0 mps 763 mmHg 86%

14 March, Sunday

Time Temperature Precipitation Wind Pressure Humidity
00:00 +12°C° 0 mm 0 mps 763 mmHg 87%
01:00 +11°C° 0 mm 0 mps 763 mmHg 89%
02:00 +11°C° 0 mm 0 mps 762 mmHg 90%
03:00 +11°C° 0 mm 0 mps 762 mmHg 91%
04:00 +11°C° 0 mm 0 mps 762 mmHg 92%
05:00 +11°C° 0 mm 0 mps 762 mmHg 93%
06:00 +12°C° 0 mm 0 mps 762 mmHg 90%
07:00 +13°C° 0 mm 0 mps 762 mmHg 87%
08:00 +14°C° 0 mm 0 mps 762 mmHg 84%
09:00 +17°C° 0 mm 0 mps 762 mmHg 78%
10:00 +19°C° 0 mm 0 mps 762 mmHg 72%
11:00 +23°C° 0 mm 1 mps 762 mmHg 66%
12:00 +24°C° 0 mm 1 mps 761 mmHg 62%
13:00 +25°C° 0 mm 1 mps 760 mmHg 59%
14:00 +26°C° 0 mm 1 mps 760 mmHg 55%
15:00 +26°C° 0 mm 1 mps 759 mmHg 58%
16:00 +25°C° 0 mm 1 mps 759 mmHg 62%
17:00 +25°C° 0 mm 1 mps 759 mmHg 65%
18:00 +23°C° 0 mm 1 mps 759 mmHg 70%
19:00 +21°C° 0 mm 1 mps 759 mmHg 75%
20:00 +19°C° 0 mm 1 mps 760 mmHg 80%
21:00 +18°C° 0 mm 1 mps 760 mmHg 82%
22:00 +18°C° 0 mm 1 mps 760 mmHg 85%
23:00 +18°C° 0 mm 1 mps 759 mmHg 87%
Show more